Regional Weather Roundup
Issued by NWS

Home | Current Version | Previous Version | Text Only | Print | Product List | Glossary Off
Versions: 1 2 3 4 5 6 7 8 9 10 11 12 13 14 15 16 17 18 19 20 21 22 23 24 25 26 27 28 29 30 31 32 33 34 35 36 37 38 39 40 41 42 43 44 45 46 47 48 49 50

000
ASUS43 KDTX 090910
RWRMI
MICHIGAN HOURLY REGIONAL WEATHER ROUNDUP
NATIONAL WEATHER SERVICE DETROIT/PONTIAC MI
400 AM EST TUE FEB 09 2016

NOTE: "FAIR" INDICATES FEW OR NO CLOUDS BELOW 12,000 FEET WITH NO
SIGNIFICANT WEATHER AND/OR OBSTRUCTION TO VISIBILITY.

MIZ047>049-052>055-059>063-066>070-074>076-081>083-091000-
SOUTHEAST LOWER MICHIGAN

CITY           SKY/WX    TMP DP  RH WIND       PRES   REMARKS
ADRIAN         LGT SNOW  30  26  85 W8        29.56F FOG     WCI  22
ALMA           CLOUDY    30  28  92 NW12G18   29.56S WCI  21
ANN ARBOR      CLOUDY    31  28  89 W12       29.53F WCI  22
BAD AXE        LGT SNOW  32  31  97 N16G23    29.46F WCI  21
CARO           CLOUDY    34  32  93 NW14      29.49S WCI  24
DETROIT CITY   CLOUDY    34  28  79 W8        29.51F WCI  27
DETROIT        CLOUDY    32  29  88 SW8       29.53F WCI  25
FLINT          LGT SNOW  34  30  85 W12       29.51F FOG     WCI  25
GROSSE ILE     CLOUDY    34  28  80 W8        29.52F WCI  27
HILLSDALE      CLOUDY    28  27  96 W7        29.54F WCI  21
HOWELL         LGT SNOW  32  32 100 W7        29.51F WCI  26

CITY           SKY/WX    TMP DP  RH WIND       PRES   REMARKS
JACKSON        LGT SNOW  30  26  85 W10       29.53F FOG     WCI  21
LAMBERTVILLE   CLOUDY    31  27  84 W12       29.56F WCI  21
LANSING        LGT SNOW  31  29  92 NW9       29.54F FOG     WCI  23
LAPEER         LGT SNOW  32  32 100 W8        29.48F WCI  25
MASON          LGT SNOW  31  30  96 W8        29.53F WCI  24
MONROE         FLURRIES  31  29  92 W10       29.54F WCI  22
MT. CLEMENS    LGT SNOW  32  32 100 W7        29.48F FOG     WCI  26
PONTIAC        LGT SNOW  32  30  92 W9        29.49F VSB 1   WCI  24
PORT HURON     LGT SNOW  32  32 100 W8        29.47F WCI  25
TRI CITIES     LGT SNOW  32  28  85 NW13      29.53S FOG     WCI  22
MIDLAND        LGT SNOW  30  28  92 NW13G20   29.54S WCI  20
TROY           LGT SNOW  34  32  93 W5        29.52F WCI  30
SAGINAW HB     LGT SNOW  32  32 100 NW13G18   29.52S WCI  22
$$
MIZ043>046-050>051-056>058-064>065-071>073-077>080-091000-
SOUTHWEST LOWER MICHIGAN

CITY           SKY/WX    TMP DP  RH WIND       PRES   REMARKS
BATTLE CREEK   CLOUDY    30  27  88 W5        29.56F WCI  25
BENTON HARBOR  LGT SNOW  30  28  92 NW12G20   29.63S VSB 1   WCI  20
BIG RAPIDS     CLOUDY    26  23  89 N9G16     29.58F WCI  16
COLDWATER      CLOUDY    28  27  94 W7        29.56F WCI  21
FREMONT        CLOUDY    26  24  92 N15       29.61F WCI  13
HOLLAND        CLOUDY    29  25  85 N13       29.62S WCI  19
GRAND RAPIDS   CLOUDY    30  26  85 NW14      29.59S WCI  19
IONIA          CLOUDY    31  27  87 NW10      29.56S WCI  22
KALAMAZOO      CLOUDY    32  28  85 NW9       29.57F WCI  24
LUDINGTON      CLOUDY    25  21  86 N9        29.66S WCI  15
MARSHALL       CLOUDY    30  28  92 SW5       29.55F WCI  25
MOUNT PLEASANT CLOUDY    29  24  80 NW10      29.56S WCI  20
MUSKEGON       CLOUDY    27  21  78 N14       29.64S WCI  16
SOUTH HAVEN    CLOUDY    30  27  90 N10G18    29.61F WCI  21
$$
MIZ016>042-091000-
NORTHERN LOWER MICHIGAN

CITY           SKY/WX    TMP DP  RH WIND       PRES   REMARKS
ALPENA         LGT SNOW  29  25  85 NW13G18   29.54S FOG     WCI  19
BEAVER ISLAND  CLOUDY    23  19  83 NW10G18   29.63F WCI  13
BELLAIRE       CLOUDY    26  21  83 N5        29.62F WCI  20
CADILLAC       CLOUDY    24  21  91 N7        29.56F WCI  15
CHARLEVOIX     CLOUDY    26  22  86 N13       29.65F WCI  15
FRANKFORT      CLOUDY    24  20  84 N8G17     29.66S WCI  15
GAYLORD        CLOUDY    23  21  92 NW8       29.55F WCI  14
GRAYLING       CLOUDY    24  22  91 W13       29.57S WCI  12
HARBOR SPRINGS CLOUDY    25  20  83 NW9       29.60F WCI  15
HOUGHTON LAKE  CLOUDY    24  22  91 NW16G22   29.55F WCI  11
MANISTEE       CLOUDY    25  18  74 N8        29.66S WCI  16
OSCODA         LGT SNOW  29  28  94 NW16G22   29.50F WCI  17
PELLSTON       CLOUDY    24  20  84 NW14      29.60F WCI  12
ROGERS CITY    LGT SNOW  28  26  91 NW12G17   29.57S WCI  18
TRAVERSE CITY  CLOUDY    26  20  77 N12       29.62F WCI  16
$$
MIZ007>008-015-091000-
EASTERN UPPER MICHIGAN

CITY           SKY/WX    TMP DP  RH WIND       PRES   REMARKS
KINROSS        CLOUDY    27  27 100 NW12      29.57F WCI  16
MACKINAC ISLAN CLOUDY    25  22  89 NW12      29.59S WCI  14
NEWBERRY       CLOUDY    21  19  89 NW13G18   29.61F WCI   9
S. S. MARIE    LGT SNOW  29  25  85 NW9       29.57S FOG     WCI  20
MUNISING         N/A     20  16  84 N22G28    29.69S WCI   3
$$
MIZ004>006-011>014-085-091000-
CENTRAL UPPER MICHIGAN

CITY           SKY/WX    TMP DP  RH WIND       PRES   REMARKS
MANISTIQUE     CLOUDY    21  15  78 NW16G25   29.65S WCI   7
ESCANABA       CLOUDY    14   7  73 NW12      29.71S WCI   0
MENOMINEE      CLOUDY    16   5  62 N9        29.75S WCI   4
SAWYER-GWINN   LGT SNOW  12   8  85 N16G23    29.68S WCI  -5
$$
MIZ001>003-009>011-084-091000-
WESTERN UPPER MICHIGAN

CITY           SKY/WX    TMP DP  RH WIND       PRES   REMARKS
IRON MOUNTAIN  PTCLDY    12   4  70 NW12      29.71S WCI  -2
HOUGHTON       LGT SNOW  10   5  80 N15       29.77S WCI  -7
COPPER HARBOR    N/A     16  13  88 NE26G36   29.77S WCI  -3
IRONWOOD       CLOUDY    12  10  92 N10G18    29.81R WCI  -1
$$

ABBREVIATIONS USED IN REMARKS
   TC - TEMPERATURE IN CELSIUS
  WCI - WIND CHILL INDEX
   HX - HEAT INDEX
  VSB - VISIBILITY




USA.gov is the U.S. government's official web portal to all federal, state and local government web resources and services.